This is the latest recevied weather packets stored in our database for station/object K9YK-13. If no packets are shown the sender has not sent any weather packets the latest 10 day(s).
| Time | Temp. | Humidity | Pressure | Rain* | Wind** | Luminosity | Snow |
|---|---|---|---|---|---|---|---|
| 1778077269 | 12.78° C | 70% | 0 hPa | 0 mm | - | - | - |
| 1778076969 | 13.33° C | 70% | 0 hPa | 0 mm | - | - | - |
| 1778076669 | 12.78° C | 69% | 0 hPa | 0 mm | - | - | - |
| 1778076369 | 12.78° C | 72% | 0 hPa | 0 mm | - | - | - |
| 1778076069 | 12.78° C | 73% | 0 hPa | 0 mm | - | - | - |
| 1778075769 | 11.11° C | 73% | 0 hPa | 0 mm | - | - | - |
| 1778075469 | 11.11° C | 77% | 0 hPa | 0 mm | - | - | - |
| 1778075169 | 11.67° C | 78% | 0 hPa | 0 mm | - | - | - |
| 1778074869 | 11.11° C | 81% | 0 hPa | 0 mm | - | - | - |
| 1778074569 | 11.11° C | 82% | 0 hPa | 0 mm | - | - | - |
| 1778074269 | 10.56° C | 84% | 0 hPa | 0 mm | - | - | - |
| 1778073969 | 10° C | 86% | 0 hPa | 0 mm | - | - | - |
| 1778073669 | 9.44° C | 86% | 0 hPa | 0 mm | - | - | - |
| 1778073369 | 9.44° C | 85% | 0 hPa | 0 mm | - | - | - |
| 1778073069 | 10.56° C | 80% | 0 hPa | 0 mm | - | - | - |
| 1778072769 | 11.11° C | 81% | 0 hPa | 0 mm | - | - | - |
| 1778072469 | 9.44° C | 81% | 0 hPa | 0 mm | - | - | - |
| 1778072169 | 10° C | 81% | 0 hPa | 0 mm | - | - | - |
| 1778071869 | 10° C | 84% | 0 hPa | 0 mm | - | - | - |
| 1778071569 | 9.44° C | 85% | 0 hPa | 0 mm | - | - | - |
| 1778071269 | 9.44° C | 82% | 0 hPa | 0 mm | - | - | - |
| 1778070969 | 10° C | 87% | 0 hPa | 0 mm | - | - | - |
| 1778070669 | 10° C | 91% | 0 hPa | 0 mm | - | - | - |
| 1778070369 | 8.89° C | 92% | 0 hPa | 0 mm | - | - | - |
| 1778070069 | 8.89° C | 94% | 0 hPa | 0 mm | - | - | - |
* Rain latest hour (hover to see other rain measurements)
** Current wind speed in m/s (hover to see current wind gust speed)